| time (UTC) | temp C | wind direction | speed KPH | gust KPH | rain 1hr cm | rain 24hr cm | rain mn cm | humidity % | barometer mb |
| 20260505153337 | 15 | 76 | 3.2 | 12.9 | 0.00 | 0.00 | 0.00 | 46 | |
| 20260505152837 | 15 | 41 | 3.2 | 9.7 | 0.00 | 0.00 | 0.00 | 46 | |
| 20260505152337 | 15 | 72 | 4.8 | 12.9 | 0.00 | 0.00 | 0.00 | 46 | |
| 20260505151836 | 15 | 96 | 4.8 | 11.3 | 0.00 | 0.00 | 0.00 | 46 | |
| 20260505151336 | 15 | 103 | 3.2 | 11.3 | 0.00 | 0.00 | 0.00 | 47 | |
| 20260505150836 | 15 | 83 | 4.8 | 14.5 | 0.00 | 0.00 | 0.00 | 46 | |
| 20260505150335 | 16 | 110 | 3.2 | 9.7 | 0.00 | 0.00 | 0.00 | 45 | |
| 20260505140332 | 16 | 93 | 4.8 | 12.9 | 0.00 | 0.00 | 0.00 | 45 | |
| 20260505124828 | 17 | 58 | 3.2 | 8.0 | 0.00 | 0.00 | 0.00 | 45 | |
| 20260505123827 | 17 | 90 | 4.8 | 11.3 | 0.00 | 0.00 | 0.00 | 44 | |
| 20260505123327 | 17 | 158 | 3.2 | 12.9 | 0.00 | 0.00 | 0.00 | 44 | |
| 20260505122827 | 17 | 21 | 6.4 | 16.1 | 0.00 | 0.00 | 0.00 | 42 | |
| 20260505122326 | 17 | 69 | 3.2 | 9.7 | 0.00 | 0.00 | 0.00 | 44 | |
| 20260505121826 | 17 | 108 | 4.8 | 12.9 | 0.00 | 0.00 | 0.00 | 42 | |
| 20260505121326 | 17 | 31 | 4.8 | 14.5 | 0.00 | 0.00 | 0.00 | 43 | |
| 20260505120825 | 17 | 63 | 4.8 | 14.5 | 0.00 | 0.00 | 0.00 | 44 | |
| 20260505120325 | 17 | 34 | 4.8 | 14.5 | 0.00 | 0.00 | 0.00 | 44 | |
| 20260505115825 | 16 | 25 | 4.8 | 9.7 | 0.00 | 0.00 | 0.00 | 46 | |
| 20260505115325 | 16 | 70 | 4.8 | 14.5 | 0.00 | 0.00 | 0.00 | 46 | |
| 20260505114824 | 16 | 44 | 3.2 | 9.7 | 0.00 | 0.00 | 0.00 | 47 | |
| 20260505114324 | 16 | 94 | 4.8 | 11.3 | 0.00 | 0.00 | 0.00 | 48 | |
| 20260505113824 | 16 | 80 | 1.6 | 11.3 | 0.00 | 0.00 | 0.00 | 48 | |
| 20260505113323 | 16 | 83 | 4.8 | 12.9 | 0.00 | 0.00 | 0.00 | 48 | |
| 20260505112823 | 16 | 13 | 4.8 | 11.3 | 0.00 | 0.00 | 0.00 | 48 | |
| 20260505112323 | 15 | 90 | 6.4 | 19.3 | 0.00 | 0.00 | 0.00 | 50 | |
| 20260505111823 | 15 | 118 | 6.4 | 16.1 | 0.00 | 0.00 | 0.00 | 49 | |
| 20260505111322 | 15 | 46 | 4.8 | 12.9 | 0.00 | 0.00 | 0.00 | 48 | |
| 20260505110822 | 15 | 353 | 3.2 | 9.7 | 0.00 | 0.00 | 0.00 | 50 | |
| 20260505110322 | 14 | 69 | 4.8 | 12.9 | 0.00 | 0.00 | 0.00 | 49 | |
| 20260505101818 | 14 | 114 | 4.8 | 14.5 | 0.00 | 0.00 | 0.00 | 50 | |
| 20260505100817 | 15 | 7 | 8.0 | 16.1 | 0.00 | 0.00 | 0.00 | 51 | |
| 20260505095817 | 15 | 41 | 6.4 | 14.5 | 0.00 | 0.00 | 0.00 | 51 | |
| 20260505094816 | 15 | 80 | 4.8 | 12.9 | 0.00 | 0.00 | 0.00 | 53 | |
| 20260505093815 | 14 | 66 | 4.8 | 14.5 | 0.00 | 0.00 | 0.00 | 53 | |
| 20260505093315 | 14 | 87 | 6.4 | 17.7 | 0.00 | 0.00 | 0.00 | 51 | |
| 20260505092815 | 14 | 42 | 4.8 | 12.9 | 0.00 | 0.00 | 0.00 | 53 | |
| 20260505092315 | 14 | 86 | 6.4 | 17.7 | 0.00 | 0.00 | 0.00 | 53 | |
| 20260505091814 | 14 | 87 | 9.7 | 17.7 | 0.00 | 0.00 | 0.00 | 49 | |
| 20260505091314 | 15 | 11 | 4.8 | 11.3 | 0.00 | 0.00 | 0.00 | 52 | |
| 20260505090313 | 15 | 18 | 6.4 | 12.9 | 0.00 | 0.00 | 0.00 | 53 | |
| 20260505085813 | 14 | 49 | 4.8 | 11.3 | 0.00 | 0.00 | 0.00 | 55 | |
| 20260505085313 | 13 | 34 | 4.8 | 16.1 | 0.00 | 0.00 | 0.00 | 54 | |
| 20260505084813 | 13 | 32 | 4.8 | 14.5 | 0.00 | 0.00 | 0.00 | 56 | |
| 20260505084312 | 13 | 94 | 4.8 | 14.5 | 0.00 | 0.00 | 0.00 | 59 | |
| 20260505083812 | 13 | 59 | 4.8 | 14.5 | 0.00 | 0.00 | 0.00 | 60 | |
| 20260505083312 | 13 | 28 | 4.8 | 16.1 | 0.00 | 0.00 | 0.00 | 61 | |
| 20260505082811 | 12 | 60 | 6.4 | 16.1 | 0.00 | 0.00 | 0.00 | 63 | |
| 20260505082311 | 12 | 6 | 6.4 | 17.7 | 0.00 | 0.00 | 0.00 | 63 | |
| 20260505081811 | 12 | 60 | 3.2 | 12.9 | 0.00 | 0.00 | 0.00 | 66 | |
| 20260505081311 | 12 | 82 | 4.8 | 12.9 | 0.00 | 0.00 | 0.00 | 66 | |
| 20260505080810 | 12 | 83 | 4.8 | 16.1 | 0.00 | 0.00 | 0.00 | 67 | |
| 20260505080310 | 11 | 108 | 3.2 | 8.0 | 0.00 | 0.00 | 0.00 | 68 | |
| 20260505075309 | 11 | 52 | 3.2 | 9.7 | 0.00 | 0.00 | 0.00 | 72 | |
| 20260505074809 | 11 | 93 | 3.2 | 9.7 | 0.00 | 0.00 | 0.00 | 73 | |
| 20260505074309 | 11 | 42 | 3.2 | 9.7 | 0.00 | 0.00 | 0.00 | 75 | |
| 20260505073809 | 10 | 42 | 4.8 | 12.9 | 0.00 | 0.00 | 0.00 | 76 | |
| 20260505073308 | 11 | 42 | 3.2 | 12.9 | 0.00 | 0.00 | 0.00 | 77 | |
| 20260505072808 | 10 | 38 | 1.6 | 6.4 | 0.00 | 0.00 | 0.00 | 79 | |
| 20260505072308 | 10 | 44 | 1.6 | 8.0 | 0.00 | 0.00 | 0.00 | 79 | |
| 20260505071808 | 10 | 41 | 0.0 | 1.6 | 0.00 | 0.00 | 0.00 | 80 | |
| 20260505071307 | 10 | 31 | 0.0 | 6.4 | 0.00 | 0.00 | 0.00 | 81 | |
| 20260505070807 | 9 | 68 | 1.6 | 8.0 | 0.00 | 0.00 | 0.00 | 81 | |
| 20260505070307 | 10 | 107 | 0.0 | 4.8 | 0.00 | 0.00 | 0.00 | 82 | |
| 20260505065806 | 9 | 77 | 1.6 | 6.4 | 0.00 | 0.00 | 0.00 | 83 | |
| 20260505065306 | 9 | 24 | 0.0 | 4.8 | 0.00 | 0.00 | 0.00 | 84 | |
| 20260505064806 | 9 | 103 | 1.6 | 9.7 | 0.00 | 0.00 | 0.00 | 85 | |
| 20260505064306 | 8 | 77 | 1.6 | 6.4 | 0.00 | 0.00 | 0.00 | 86 | |
| 20260505063805 | 8 | 76 | 1.6 | 6.4 | 0.00 | 0.00 | 0.00 | 87 | |
| 20260505063305 | 9 | 98 | 1.6 | 6.4 | 0.00 | 0.00 | 0.00 | 88 | |
| 20260505062805 | 8 | 98 | 1.6 | 8.0 | 0.00 | 0.00 | 0.00 | 90 | |
| 20260505062304 | 8 | 141 | 1.6 | 8.0 | 0.00 | 0.00 | 0.00 | 91 | |
| 20260505061804 | 8 | 122 | 0.0 | 4.8 | 0.00 | 0.00 | 0.00 | 92 | |
| 20260505061304 | 8 | 0 | 0.0 | 0.0 | 0.00 | 0.00 | 0.00 | 92 | |
| 20260505060804 | 7 | 0 | 0.0 | 0.0 | 0.00 | 0.00 | 0.00 | 92 | |
| 20260505060303 | 7 | 7 | 0.0 | 1.6 | 0.00 | 0.00 | 0.00 | 92 | |
| 20260505055803 | 7 | 0 | 0.0 | 0.0 | 0.00 | 0.00 | 0.00 | 92 | |
| 20260505055303 | 7 | 0 | 0.0 | 0.0 | 0.00 | 0.00 | 0.00 | 92 | |
| 20260505054801 | 7 | 0 | 0.0 | 0.0 | 0.00 | 0.00 | 0.00 | 91 | |
| 20260505054301 | 7 | 21 | 0.0 | 4.8 | 0.00 | 0.00 | 0.00 | 92 | |
| 20260505053801 | 7 | 32 | 0.0 | 1.6 | 0.00 | 0.00 | 0.00 | 92 | |
| 20260505053300 | 7 | 0 | 0.0 | 0.0 | 0.00 | 0.00 | 0.00 | 91 | |
| 20260505052800 | 6 | 0 | 0.0 | 0.0 | 0.00 | 0.00 | 0.00 | 92 | |
| 20260505052300 | 7 | 0 | 0.0 | 0.0 | 0.00 | 0.00 | 0.00 | 92 | |
| 20260505051800 | 7 | 0 | 0.0 | 0.0 | 0.00 | 0.00 | 0.00 | 91 | |
| 20260505051259 | 7 | 0 | 0.0 | 0.0 | 0.00 | 0.00 | 0.00 | 91 | |
| 20260505050758 | 7 | 0 | 0.0 | 0.0 | 0.00 | 0.00 | 0.00 | 91 | |
| 20260505050258 | 7 | 0 | 0.0 | 0.0 | 0.00 | 0.00 | 0.00 | 91 | |
| 20260505041756 | 7 | 0 | 0.0 | 0.0 | 0.00 | 0.00 | 0.00 | 91 | |
| 20260505041255 | 7 | 0 | 0.0 | 0.0 | 0.00 | 0.00 | 0.00 | 91 | |
| 20260505040750 | 7 | 0 | 0.0 | 0.0 | 0.00 | 0.00 | 0.00 | 91 | |
| 20260505040250 | 7 | 0 | 0.0 | 0.0 | 0.00 | 0.00 | 0.00 | 90 | |
| 20260505035750 | 7 | 0 | 0.0 | 0.0 | 0.00 | 0.00 | 0.00 | 90 | |
| 20260505035249 | 7 | 0 | 0.0 | 0.0 | 0.00 | 0.00 | 0.00 | 90 | |
| 20260505034749 | 7 | 0 | 0.0 | 0.0 | 0.00 | 0.00 | 0.00 | 90 | |
| 20260505034249 | 7 | 0 | 0.0 | 0.0 | 0.00 | 0.00 | 0.00 | 90 | |
| 20260505033748 | 7 | 0 | 0.0 | 0.0 | 0.00 | 0.00 | 0.00 | 90 | |
| 20260505033247 | 7 | 0 | 0.0 | 0.0 | 0.00 | 0.00 | 0.00 | 90 | |
| 20260505032747 | 7 | 0 | 0.0 | 0.0 | 0.00 | 0.00 | 0.00 | 90 | |
| 20260505031746 | 7 | 18 | 0.0 | 1.6 | 0.00 | 0.00 | 0.00 | 90 | |
| 20260505031246 | 7 | 0 | 0.0 | 0.0 | 0.00 | 0.00 | 0.00 | 90 | |
| 20260505030745 | 7 | 38 | 0.0 | 3.2 | 0.00 | 0.00 | 0.00 | 90 | |
| 20260505030245 | 7 | 10 | 0.0 | 1.6 | 0.00 | 0.00 | 0.00 | 90 | |
| 20260505025745 | 7 | 87 | 0.0 | 1.6 | 0.00 | 0.00 | 0.00 | 89 | |
| 20260505025245 | 7 | 0 | 0.0 | 0.0 | 0.00 | 0.00 | 0.00 | 89 | |
| 20260505024744 | 7 | 0 | 0.0 | 0.0 | 0.00 | 0.00 | 0.00 | 89 | |
| 20260505024244 | 7 | 0 | 0.0 | 0.0 | 0.00 | 0.00 | 0.00 | 89 | |
| 20260505023744 | 7 | 0 | 0.0 | 0.0 | 0.00 | 0.00 | 0.00 | 89 | |
| 20260505023243 | 7 | 0 | 0.0 | 0.0 | 0.00 | 0.00 | 0.00 | 89 | |
| 20260505022742 | 8 | 0 | 0.0 | 0.0 | 0.00 | 0.00 | 0.00 | 89 | |
| 20260505022242 | 7 | 0 | 0.0 | 0.0 | 0.00 | 0.00 | 0.00 | 89 | |
| 20260505021742 | 8 | 0 | 0.0 | 0.0 | 0.00 | 0.00 | 0.00 | 89 | |
| 20260505021241 | 8 | 0 | 0.0 | 0.0 | 0.00 | 0.00 | 0.00 | 88 | |
| 20260505020741 | 7 | 0 | 0.0 | 0.0 | 0.00 | 0.00 | 0.00 | 88 | |
| 20260505020241 | 8 | 0 | 0.0 | 0.0 | 0.00 | 0.00 | 0.00 | 88 | |
| 20260505015741 | 8 | 0 | 0.0 | 0.0 | 0.00 | 0.00 | 0.00 | 88 | |
| 20260505015240 | 8 | 0 | 0.0 | 0.0 | 0.00 | 0.00 | 0.00 | 88 | |
| 20260505014740 | 8 | 0 | 0.0 | 0.0 | 0.00 | 0.00 | 0.00 | 88 | |
| 20260505014240 | 8 | 0 | 0.0 | 0.0 | 0.00 | 0.00 | 0.00 | 88 | |
| 20260505013739 | 8 | 0 | 0.0 | 0.0 | 0.00 | 0.00 | 0.00 | 88 | |
| 20260505013239 | 8 | 0 | 0.0 | 0.0 | 0.00 | 0.00 | 0.00 | 87 | |
| 20260505012739 | 8 | 0 | 0.0 | 0.0 | 0.00 | 0.00 | 0.00 | 87 | |
| 20260505012239 | 9 | 0 | 0.0 | 0.0 | 0.00 | 0.00 | 0.00 | 87 | |
| 20260505011738 | 9 | 0 | 0.0 | 0.0 | 0.00 | 0.00 | 0.00 | 87 | |
| 20260505011238 | 8 | 0 | 0.0 | 0.0 | 0.00 | 0.00 | 0.00 | 87 | |
| 20260505010738 | 8 | 0 | 0.0 | 0.0 | 0.00 | 0.00 | 0.00 | 87 | |
| 20260505010237 | 9 | 0 | 0.0 | 0.0 | 0.00 | 0.00 | 0.00 | 87 | |
| 20260505005737 | 9 | 0 | 0.0 | 0.0 | 0.00 | 0.00 | 0.00 | 87 | |
| 20260505005237 | 9 | 0 | 0.0 | 0.0 | 0.00 | 0.00 | 0.00 | 87 | |
| 20260505004737 | 10 | 0 | 0.0 | 0.0 | 0.00 | 0.00 | 0.00 | 87 | |
| 20260505004236 | 9 | 0 | 0.0 | 0.0 | 0.00 | 0.00 | 0.00 | 87 | |
| 20260505003736 | 9 | 0 | 0.0 | 0.0 | 0.00 | 0.00 | 0.00 | 86 | |
| 20260505003236 | 9 | 0 | 0.0 | 0.0 | 0.00 | 0.00 | 0.00 | 86 | |
| 20260505002735 | 9 | 0 | 0.0 | 0.0 | 0.00 | 0.00 | 0.00 | 86 | |
| 20260505002235 | 10 | 0 | 0.0 | 0.0 | 0.00 | 0.00 | 0.00 | 86 | |
| 20260505001735 | 9 | 0 | 0.0 | 0.0 | 0.00 | 0.00 | 0.00 | 85 | |
| 20260505001235 | 10 | 0 | 0.0 | 0.0 | 0.00 | 0.00 | 0.00 | 85 | |
| 20260505000734 | 10 | 0 | 0.0 | 0.0 | 0.00 | 0.00 | 0.00 | 85 | |
| 20260505000234 | 11 | 0 | 0.0 | 0.0 | 0.00 | 0.00 | 0.00 | 85 | |
| 20260504235734 | 10 | 0 | 0.0 | 0.0 | 0.00 | 0.00 | 0.00 | 85 | |
| 20260504235233 | 10 | 0 | 0.0 | 0.0 | 0.00 | 0.00 | 0.00 | 85 | |
| 20260504234733 | 10 | 0 | 0.0 | 0.0 | 0.00 | 0.00 | 0.00 | 84 | |
| 20260504234233 | 10 | 0 | 0.0 | 0.0 | 0.00 | 0.00 | 0.00 | 84 | |
| 20260504233733 | 10 | 0 | 0.0 | 0.0 | 0.00 | 0.00 | 0.00 | 84 | |
| 20260504233232 | 10 | 0 | 0.0 | 0.0 | 0.00 | 0.00 | 0.00 | 84 | |
| 20260504232732 | 11 | 0 | 0.0 | 0.0 | 0.00 | 0.00 | 0.00 | 84 | |
| 20260504232232 | 11 | 0 | 0.0 | 0.0 | 0.00 | 0.00 | 0.00 | 84 | |
| 20260504231731 | 10 | 0 | 0.0 | 0.0 | 0.00 | 0.00 | 0.00 | 84 | |
| 20260504231231 | 10 | 0 | 0.0 | 0.0 | 0.00 | 0.00 | 0.00 | 83 | |
| 20260504230731 | 10 | 0 | 0.0 | 0.0 | 0.00 | 0.00 | 0.00 | 83 | |
| 20260504230231 | 11 | 0 | 0.0 | 0.0 | 0.00 | 0.00 | 0.00 | 83 | |
| 20260504225730 | 11 | 0 | 0.0 | 0.0 | 0.00 | 0.00 | 0.00 | 83 | |
| 20260504225230 | 11 | 0 | 0.0 | 0.0 | 0.00 | 0.00 | 0.00 | 82 | |
| 20260504224730 | 11 | 107 | 1.6 | 6.4 | 0.00 | 0.00 | 0.00 | 82 | |
| 20260504224229 | 11 | 113 | 0.0 | 4.8 | 0.00 | 0.00 | 0.00 | 82 | |
| 20260504223729 | 11 | 80 | 0.0 | 1.6 | 0.00 | 0.00 | 0.00 | 82 | |
| 20260504223229 | 11 | 0 | 0.0 | 0.0 | 0.00 | 0.00 | 0.00 | 81 | |
| 20260504222729 | 11 | 0 | 0.0 | 0.0 | 0.00 | 0.00 | 0.00 | 81 | |
| 20260504222228 | 11 | 0 | 0.0 | 0.0 | 0.00 | 0.00 | 0.00 | 81 | |
| 20260504221728 | 11 | 100 | 1.6 | 6.4 | 0.00 | 0.00 | 0.00 | 81 | |
| 20260504221228 | 11 | 98 | 1.6 | 4.8 | 0.00 | 0.00 | 0.00 | 80 | |
| 20260504220727 | 11 | 114 | 3.2 | 8.0 | 0.00 | 0.00 | 0.00 | 80 | |
| 20260504220227 | 11 | 105 | 3.2 | 8.0 | 0.00 | 0.00 | 0.00 | 80 | |
| 20260504215727 | 12 | 104 | 3.2 | 9.7 | 0.00 | 0.00 | 0.00 | 79 | |
| 20260504215227 | 12 | 96 | 1.6 | 6.4 | 0.00 | 0.00 | 0.00 | 78 | |
| 20260504214726 | 12 | 94 | 3.2 | 8.0 | 0.00 | 0.00 | 0.00 | 78 | |
| 20260504214226 | 12 | 87 | 1.6 | 6.4 | 0.00 | 0.00 | 0.00 | 77 | |
| 20260504213726 | 12 | 136 | 1.6 | 9.7 | 0.00 | 0.00 | 0.00 | 77 | |
| 20260504213226 | 12 | 139 | 3.2 | 9.7 | 0.00 | 0.00 | 0.00 | 76 | |
| 20260504212725 | 12 | 162 | 3.2 | 9.7 | 0.00 | 0.00 | 0.00 | 76 | |
| 20260504212225 | 12 | 134 | 3.2 | 9.7 | 0.00 | 0.00 | 0.00 | 76 | |
| 20260504211725 | 12 | 134 | 1.6 | 8.0 | 0.00 | 0.00 | 0.00 | 76 | |
| 20260504211224 | 12 | 118 | 4.8 | 9.7 | 0.00 | 0.00 | 0.00 | 76 | |
| 20260504210724 | 12 | 153 | 1.6 | 9.7 | 0.00 | 0.00 | 0.00 | 76 | |
| 20260504210224 | 12 | 136 | 1.6 | 6.4 | 0.00 | 0.00 | 0.00 | 76 | |
| 20260504205724 | 12 | 127 | 1.6 | 6.4 | 0.00 | 0.00 | 0.00 | 76 | |
| 20260504205223 | 13 | 132 | 3.2 | 11.3 | 0.00 | 0.00 | 0.00 | 76 | |
| 20260504204723 | 13 | 80 | 3.2 | 9.7 | 0.00 | 0.00 | 0.00 | 76 | |
| 20260504204223 | 13 | 103 | 4.8 | 12.9 | 0.00 | 0.00 | 0.00 | 75 | |
| 20260504203722 | 13 | 105 | 6.4 | 11.3 | 0.00 | 0.00 | 0.00 | 76 | |
| 20260504203222 | 13 | 97 | 3.2 | 9.7 | 0.00 | 0.00 | 0.00 | 76 | |
| 20260504202722 | 12 | 98 | 4.8 | 8.0 | 0.00 | 0.00 | 0.00 | 76 | |
| 20260504202222 | 13 | 87 | 3.2 | 8.0 | 0.00 | 0.00 | 0.00 | 76 | |
| 20260504201721 | 13 | 110 | 3.2 | 8.0 | 0.00 | 0.00 | 0.00 | 76 | |
| 20260504201221 | 13 | 94 | 3.2 | 9.7 | 0.00 | 0.00 | 0.00 | 76 | |
| 20260504200721 | 13 | 96 | 3.2 | 9.7 | 0.00 | 0.00 | 0.00 | 76 | |
| 20260504200220 | 13 | 96 | 1.6 | 4.8 | 0.00 | 0.00 | 0.00 | 75 | |
| 20260504195720 | 13 | 181 | 1.6 | 6.4 | 0.00 | 0.00 | 0.00 | 75 | |
| 20260504195220 | 13 | 121 | 1.6 | 8.0 | 0.00 | 0.00 | 0.00 | 74 | |
| 20260504194720 | 13 | 91 | 1.6 | 4.8 | 0.00 | 0.00 | 0.00 | 74 | |
| 20260504194220 | 13 | 129 | 3.2 | 8.0 | 0.00 | 0.00 | 0.00 | 74 | |
| 20260504193719 | 13 | 111 | 1.6 | 6.4 | 0.00 | 0.00 | 0.00 | 74 | |
| 20260504193218 | 13 | 138 | 1.6 | 8.0 | 0.00 | 0.00 | 0.00 | 74 | |
| 20260504192716 | 13 | 135 | 3.2 | 8.0 | 0.00 | 0.00 | 0.00 | 74 | |
| 20260504192216 | 13 | 121 | 3.2 | 8.0 | 0.00 | 0.00 | 0.00 | 74 | |
| 20260504191716 | 13 | 127 | 1.6 | 9.7 | 0.00 | 0.00 | 0.00 | 74 | |
| 20260504191215 | 13 | 148 | 1.6 | 6.4 | 0.00 | 0.00 | 0.00 | 73 | |
| 20260504190715 | 13 | 152 | 1.6 | 6.4 | 0.00 | 0.00 | 0.00 | 73 | |
| 20260504190215 | 13 | 118 | 0.0 | 4.8 | 0.00 | 0.00 | 0.00 | 73 | |
| 20260504185714 | 13 | 127 | 1.6 | 6.4 | 0.00 | 0.00 | 0.00 | 72 | |
| 20260504185214 | 14 | 120 | 4.8 | 11.3 | 0.00 | 0.00 | 0.00 | 72 | |
| 20260504184214 | 14 | 162 | 3.2 | 9.7 | 0.00 | 0.00 | 0.00 | 72 | |
| 20260504183713 | 13 | 148 | 4.8 | 12.9 | 0.00 | 0.00 | 0.00 | 71 | |
| 20260504183213 | 14 | 183 | 3.2 | 11.3 | 0.00 | 0.00 | 0.00 | 72 | |
| 20260504182713 | 14 | 201 | 6.4 | 9.7 | 0.00 | 0.00 | 0.00 | 72 | |
| 20260504181712 | 14 | 146 | 4.8 | 11.3 | 0.00 | 0.00 | 0.00 | 72 | |
| 20260504181212 | 14 | 134 | 3.2 | 11.3 | 0.00 | 0.00 | 0.00 | 73 | |
| 20260504180712 | 13 | 134 | 1.6 | 6.4 | 0.00 | 0.00 | 0.00 | 73 | |
| 20260504180211 | 14 | 160 | 6.4 | 11.3 | 0.00 | 0.00 | 0.00 | 72 | |
| 20260504175711 | 13 | 143 | 6.4 | 12.9 | 0.00 | 0.00 | 0.00 | 72 | |
| 20260504175211 | 13 | 139 | 4.8 | 8.0 | 0.00 | 0.00 | 0.00 | 73 | |
| 20260504174710 | 13 | 153 | 4.8 | 11.3 | 0.00 | 0.00 | 0.00 | 72 | |
| 20260504174210 | 13 | 128 | 8.0 | 14.5 | 0.00 | 0.00 | 0.00 | 72 | |
| 20260504173710 | 14 | 197 | 6.4 | 11.3 | 0.00 | 0.00 | 0.00 | 72 | |
| 20260504173209 | 14 | 127 | 6.4 | 12.9 | 0.00 | 0.00 | 0.00 | 71 | |
| 20260504172709 | 14 | 156 | 1.6 | 11.3 | 0.00 | 0.00 | 0.00 | 71 | |
| 20260504172209 | 14 | 176 | 3.2 | 8.0 | 0.00 | 0.00 | 0.00 | 72 | |
| 20260504171709 | 14 | 146 | 6.4 | 11.3 | 0.00 | 0.00 | 0.00 | 72 | |
| 20260504171208 | 14 | 155 | 4.8 | 11.3 | 0.00 | 0.00 | 0.00 | 72 | |
| 20260504170708 | 14 | 128 | 1.6 | 9.7 | 0.00 | 0.00 | 0.00 | 71 | |
| 20260504170208 | 14 | 87 | 1.6 | 11.3 | 0.00 | 0.00 | 0.00 | 72 | |
| 20260504160204 | 14 | 94 | 6.4 | 11.3 | 0.00 | 0.00 | 0.00 | 72 |